Tiempo cada hora Abbottabad

Hoy, 24 Octubre, Sábado

Tiempo Temperatura Precipitaciones Viento Presión Humedad
00:00 +15°C° 0 mm 2 mps 653 mmHg 32%
01:00 +15°C° 0 mm 2 mps 653 mmHg 32%
02:00 +14°C° 0 mm 2 mps 653 mmHg 32%
03:00 +14°C° 0 mm 2 mps 653 mmHg 33%
04:00 +14°C° 0 mm 2 mps 653 mmHg 33%
05:00 +14°C° 0 mm 2 mps 653 mmHg 33%
06:00 +15°C° 0 mm 2 mps 654 mmHg 31%
07:00 +17°C° 0 mm 2 mps 654 mmHg 30%
08:00 +18°C° 0 mm 2 mps 655 mmHg 28%
09:00 +21°C° 0 mm 2 mps 656 mmHg 25%
10:00 +24°C° 0 mm 1 mps 656 mmHg 21%
11:00 +26°C° 0 mm 1 mps 657 mmHg 17%
12:00 +26°C° 0 mm 2 mps 657 mmHg 17%
13:00 +26°C° 0 mm 2 mps 656 mmHg 17%
14:00 +27°C° 0 mm 3 mps 655 mmHg 16%
15:00 +25°C° 0 mm 3 mps 655 mmHg 20%
16:00 +23°C° 0 mm 2 mps 655 mmHg 24%
17:00 +20°C° 0 mm 2 mps 654 mmHg 28%
18:00 +19°C° 0 mm 2 mps 654 mmHg 30%
19:00 +18°C° 0 mm 1 mps 654 mmHg 32%
20:00 +16°C° 0 mm 1 mps 654 mmHg 33%
21:00 +15°C° 0 mm 2 mps 654 mmHg 34%
22:00 +15°C° 0 mm 2 mps 654 mmHg 34%
23:00 +15°C° 0 mm 2 mps 655 mmHg 34%

Mañana, 25 Octubre, Domingo

Tiempo Temperatura Precipitaciones Viento Presión Humedad
00:00 +15°C° 0 mm 2 mps 655 mmHg 34%
01:00 +14°C° 0 mm 2 mps 654 mmHg 34%
02:00 +14°C° 0 mm 2 mps 654 mmHg 33%
03:00 +13°C° 0 mm 3 mps 654 mmHg 33%
04:00 +13°C° 0 mm 3 mps 654 mmHg 33%
05:00 +13°C° 0 mm 3 mps 654 mmHg 33%
06:00 +14°C° 0 mm 3 mps 655 mmHg 32%
07:00 +17°C° 0 mm 2 mps 656 mmHg 30%
08:00 +18°C° 0 mm 2 mps 657 mmHg 28%
09:00 +20°C° 0 mm 2 mps 658 mmHg 24%
10:00 +23°C° 0 mm 1 mps 659 mmHg 20%
11:00 +26°C° 0 mm 1 mps 659 mmHg 16%
12:00 +25°C° 0 mm 2 mps 659 mmHg 17%
13:00 +25°C° 0 mm 2 mps 658 mmHg 17%
14:00 +25°C° 0 mm 3 mps 657 mmHg 18%
15:00 +22°C° 0.1 mm 3 mps 657 mmHg 25%
16:00 +20°C° 0.1 mm 3 mps 656 mmHg 32%
17:00 +17°C° 0.1 mm 3 mps 656 mmHg 39%
18:00 +16°C° 0 mm 3 mps 656 mmHg 40%
19:00 +14°C° 0 mm 3 mps 656 mmHg 41%
20:00 +13°C° 0 mm 3 mps 656 mmHg 42%
21:00 +13°C° 0 mm 3 mps 656 mmHg 41%
22:00 +13°C° 0 mm 3 mps 656 mmHg 40%
23:00 +12°C° 0 mm 3 mps 656 mmHg 39%

Pasado mañana, 26 Octubre, Lunes

Tiempo Temperatura Precipitaciones Viento Presión Humedad
00:00 +12°C° 0 mm 3 mps 656 mmHg 38%
01:00 +12°C° 0 mm 3 mps 656 mmHg 37%
02:00 +12°C° 0 mm 3 mps 656 mmHg 36%
03:00 +12°C° 0 mm 3 mps 656 mmHg 35%
04:00 +12°C° 0 mm 3 mps 656 mmHg 34%
05:00 +12°C° 0 mm 3 mps 656 mmHg 33%
06:00 +13°C° 0 mm 3 mps 656 mmHg 31%
07:00 +14°C° 0 mm 3 mps 657 mmHg 29%
08:00 +17°C° 0 mm 3 mps 658 mmHg 27%
09:00 +20°C° 0 mm 2 mps 658 mmHg 23%
10:00 +23°C° 0 mm 1 mps 659 mmHg 18%
11:00 +26°C° 0 mm 1 mps 660 mmHg 14%
12:00 +26°C° 0 mm 1 mps 659 mmHg 13%
13:00 +26°C° 0 mm 2 mps 659 mmHg 13%
14:00 +27°C° 0 mm 3 mps 658 mmHg 12%
15:00 +25°C° 0 mm 2 mps 657 mmHg 16%
16:00 +23°C° 0 mm 2 mps 657 mmHg 20%
17:00 +19°C° 0 mm 2 mps 656 mmHg 23%
18:00 +18°C° 0 mm 2 mps 656 mmHg 24%
19:00 +18°C° 0 mm 1 mps 656 mmHg 26%
20:00 +15°C° 0 mm 1 mps 656 mmHg 27%
21:00 +15°C° 0 mm 2 mps 656 mmHg 26%
22:00 +15°C° 0 mm 2 mps 656 mmHg 25%
23:00 +14°C° 0 mm 2 mps 656 mmHg 25%

, 27 Octubre, Martes

Tiempo Temperatura Precipitaciones Viento Presión Humedad
00:00 +14°C° 0 mm 2 mps 655 mmHg 25%
01:00 +14°C° 0 mm 2 mps 655 mmHg 26%
02:00 +14°C° 0 mm 2 mps 655 mmHg 26%
03:00 +14°C° 0 mm 2 mps 654 mmHg 26%
04:00 +14°C° 0 mm 2 mps 654 mmHg 26%
05:00 +13°C° 0 mm 2 mps 654 mmHg 26%
06:00 +15°C° 0 mm 2 mps 655 mmHg 24%
07:00 +17°C° 0 mm 2 mps 656 mmHg 23%
08:00 +18°C° 0 mm 2 mps 656 mmHg 22%
09:00 +20°C° 0 mm 2 mps 657 mmHg 19%
10:00 +24°C° 0 mm 2 mps 658 mmHg 17%
11:00 +26°C° 0 mm 2 mps 658 mmHg 14%
12:00 +26°C° 0 mm 2 mps 658 mmHg 14%
13:00 +27°C° 0 mm 2 mps 658 mmHg 14%
14:00 +27°C° 0 mm 3 mps 657 mmHg 14%
15:00 +25°C° 0 mm 2 mps 657 mmHg 18%
16:00 +23°C° 0 mm 2 mps 656 mmHg 21%
17:00 +21°C° 0 mm 1 mps 655 mmHg 25%
18:00 +19°C° 0 mm 1 mps 655 mmHg 26%
19:00 +18°C° 0 mm 1 mps 655 mmHg 27%
20:00 +16°C° 0 mm 1 mps 655 mmHg 28%
21:00 +15°C° 0 mm 2 mps 655 mmHg 29%
22:00 +15°C° 0 mm 2 mps 655 mmHg 29%
23:00 +15°C° 0 mm 2 mps 655 mmHg 29%

27 Octubre, Martes

Tiempo Temperatura Precipitaciones Viento Presión Humedad
00:00 +14°C° 0 mm 2 mps 655 mmHg 25%
01:00 +14°C° 0 mm 2 mps 655 mmHg 26%
02:00 +14°C° 0 mm 2 mps 655 mmHg 26%
03:00 +14°C° 0 mm 2 mps 654 mmHg 26%
04:00 +14°C° 0 mm 2 mps 654 mmHg 26%
05:00 +13°C° 0 mm 2 mps 654 mmHg 26%
06:00 +15°C° 0 mm 2 mps 655 mmHg 24%
07:00 +17°C° 0 mm 2 mps 656 mmHg 23%
08:00 +18°C° 0 mm 2 mps 656 mmHg 22%
09:00 +20°C° 0 mm 2 mps 657 mmHg 19%
10:00 +24°C° 0 mm 2 mps 658 mmHg 17%
11:00 +26°C° 0 mm 2 mps 658 mmHg 14%
12:00 +26°C° 0 mm 2 mps 658 mmHg 14%
13:00 +27°C° 0 mm 2 mps 658 mmHg 14%
14:00 +27°C° 0 mm 3 mps 657 mmHg 14%
15:00 +25°C° 0 mm 2 mps 657 mmHg 18%
16:00 +23°C° 0 mm 2 mps 656 mmHg 21%
17:00 +21°C° 0 mm 1 mps 655 mmHg 25%
18:00 +19°C° 0 mm 1 mps 655 mmHg 26%
19:00 +18°C° 0 mm 1 mps 655 mmHg 27%
20:00 +16°C° 0 mm 1 mps 655 mmHg 28%
21:00 +15°C° 0 mm 2 mps 655 mmHg 29%
22:00 +15°C° 0 mm 2 mps 655 mmHg 29%
23:00 +15°C° 0 mm 2 mps 655 mmHg 29%

28 Octubre, Miércoles

Tiempo Temperatura Precipitaciones Viento Presión Humedad
00:00 +15°C° 0 mm 2 mps 655 mmHg 29%
01:00 +14°C° 0 mm 2 mps 655 mmHg 29%
02:00 +14°C° 0 mm 2 mps 655 mmHg 29%
03:00 +14°C° 0 mm 2 mps 654 mmHg 29%
04:00 +14°C° 0 mm 2 mps 654 mmHg 29%
05:00 +14°C° 0 mm 2 mps 654 mmHg 29%
06:00 +15°C° 0 mm 2 mps 655 mmHg 28%
07:00 +17°C° 0 mm 2 mps 655 mmHg 26%
08:00 +18°C° 0 mm 2 mps 656 mmHg 25%
09:00 +21°C° 0 mm 1 mps 657 mmHg 21%
10:00 +24°C° 0 mm 1 mps 657 mmHg 18%
11:00 +26°C° 0 mm 1 mps 658 mmHg 14%
12:00 +26°C° 0 mm 2 mps 658 mmHg 14%
13:00 +27°C° 0 mm 3 mps 657 mmHg 13%
14:00 +27°C° 0 mm 3 mps 657 mmHg 12%
15:00 +25°C° 0 mm 3 mps 657 mmHg 15%
16:00 +21°C° 0 mm 2 mps 656 mmHg 18%
17:00 +20°C° 0 mm 1 mps 655 mmHg 22%
18:00 +19°C° 0 mm 1 mps 655 mmHg 22%
19:00 +17°C° 0 mm 2 mps 655 mmHg 23%
20:00 +15°C° 0 mm 2 mps 656 mmHg 24%
21:00 +15°C° 0 mm 2 mps 656 mmHg 24%
22:00 +15°C° 0 mm 2 mps 656 mmHg 25%
23:00 +14°C° 0 mm 2 mps 656 mmHg 25%

29 Octubre, Jueves

Tiempo Temperatura Precipitaciones Viento Presión Humedad
00:00 +14°C° 0 mm 2 mps 655 mmHg 25%
01:00 +13°C° 0 mm 3 mps 655 mmHg 25%
02:00 +13°C° 0 mm 3 mps 655 mmHg 25%
03:00 +13°C° 0 mm 3 mps 655 mmHg 25%
04:00 +12°C° 0 mm 3 mps 655 mmHg 25%
05:00 +13°C° 0 mm 2 mps 655 mmHg 25%
06:00 +15°C° 0 mm 2 mps 656 mmHg 24%
07:00 +16°C° 0 mm 2 mps 656 mmHg 23%
08:00 +18°C° 0 mm 2 mps 657 mmHg 22%
09:00 +20°C° 0 mm 2 mps 658 mmHg 19%
10:00 +24°C° 0 mm 1 mps 658 mmHg 16%
11:00 +26°C° 0 mm 1 mps 659 mmHg 13%
12:00 +26°C° 0 mm 2 mps 659 mmHg 13%
13:00 +26°C° 0 mm 2 mps 658 mmHg 13%
14:00 +27°C° 0 mm 3 mps 658 mmHg 13%
15:00 +25°C° 0 mm 2 mps 657 mmHg 16%
16:00 +23°C° 0 mm 2 mps 657 mmHg 19%
17:00 +21°C° 0 mm 1 mps 656 mmHg 22%
18:00 +20°C° 0 mm 1 mps 656 mmHg 23%
19:00 +18°C° 0 mm 1 mps 656 mmHg 24%
20:00 +16°C° 0 mm 2 mps 656 mmHg 25%
21:00 +16°C° 0 mm 2 mps 656 mmHg 25%
22:00 +16°C° 0 mm 2 mps 656 mmHg 25%
23:00 +16°C° 0 mm 2 mps 656 mmHg 25%
Mostrar más

Necesitamos Su Consentimiento

Meteoprog y nuestros Proveedores de Servicios pueden almacenar y acceder a sus datos personales como cookies, identificadores de dispositivo u otras tecnologías similares de su dispositivo y procesar dichos datos para personalizar contenido y anuncios, además de ofrecer funciones de redes sociales y analizar el tráfico.

  • Almacenar y/o acceder a información en su dispositivo

    Se puede almacenar o acceder a cookies, identificadores de dispositivo u otra información de su dispositivo para los fines anteriormente indicados.

  • Anuncios y contenido personalizados, medición de anuncios y contenido, percepciones del público, y desarrollo de productos

    Los anuncios y el contenido pueden personalizarse en base a su perfil. Se pueden añadir más datos para personalizar mejor los anuncios y contenidos. Se puede medir el rendimiento de los anuncios y contenidos. Se puede obtener la percepción sobre el público que ha visto los anuncios y contenidos. Dichos datos pueden usarse para desarrollar o mejorar la experiencia del usuario, sistemas y software.

Al hacer clic en ‘Estoy De Acuerdo’ usted permitirá el uso de las cookies, identificadores de dispositivo, balizas web u otras tecnologías similares indicadas. Su configuración puede cambiarse desde el navegador de su dispositivo.

Para ciertos fines, los intereses legítimos pueden ser considerados por encima del consentimiento. Puede leer más sobre ello en nuestra Política de Privacidad y Cookies.